04.05.2024;16:00;5
04.05.2024;15:00;8
04.05.2024;14:00;10
04.05.2024;13:00;5
04.05.2024;12:00;2
04.05.2024;11:00;2
04.05.2024;10:00;2
04.05.2024;09:00;2
04.05.2024;08:00;5
04.05.2024;07:00;2
04.05.2024;06:00;2
04.05.2024;05:00;2
04.05.2024;04:00;2
04.05.2024;03:00;2
04.05.2024;02:00;4
04.05.2024;01:00;11
03.05.2024;24:00;7
03.05.2024;23:00;14
03.05.2024;22:00;13
03.05.2024;21:00;10
03.05.2024;20:00;9
03.05.2024;19:00;6
03.05.2024;18:00;5
03.05.2024;17:00;2
03.05.2024;16:00;2
03.05.2024;15:00;3
03.05.2024;14:00;3
03.05.2024;13:00;2
03.05.2024;12:00;3
03.05.2024;11:00;5
03.05.2024;10:00;2
03.05.2024;09:00;2
03.05.2024;08:00;2
03.05.2024;07:00;2
03.05.2024;06:00;2
03.05.2024;05:00;2
03.05.2024;04:00;6
03.05.2024;03:00;7
03.05.2024;02:00;5
03.05.2024;01:00;7
02.05.2024;24:00;10
02.05.2024;23:00;14
02.05.2024;22:00;11
02.05.2024;21:00;13
02.05.2024;20:00;13
02.05.2024;19:00;7
02.05.2024;18:00;2
02.05.2024;17:00;17
02.05.2024;16:00;21
02.05.2024;15:00;29
02.05.2024;14:00;22
02.05.2024;13:00;22
02.05.2024;12:00;23
02.05.2024;11:00;12
02.05.2024;10:00;13
02.05.2024;09:00;11
02.05.2024;08:00;12
02.05.2024;07:00;10
02.05.2024;06:00;8
02.05.2024;05:00;21
02.05.2024;04:00;11
02.05.2024;03:00;2
02.05.2024;02:00;16
02.05.2024;01:00;18
01.05.2024;24:00;18
01.05.2024;23:00;21
01.05.2024;22:00;14
01.05.2024;21:00;18
01.05.2024;20:00;15
01.05.2024;19:00;18
01.05.2024;18:00;12
01.05.2024;17:00;18
01.05.2024;16:00;14
01.05.2024;15:00;11
01.05.2024;14:00;11
01.05.2024;13:00;16
01.05.2024;12:00;15
01.05.2024;11:00;9
01.05.2024;10:00;10
01.05.2024;09:00;8
01.05.2024;08:00;11
01.05.2024;07:00;13
01.05.2024;06:00;16
01.05.2024;05:00;7
01.05.2024;04:00;6
01.05.2024;03:00;6
01.05.2024;02:00;10
01.05.2024;01:00;21
30.04.2024;24:00;24
30.04.2024;23:00;39
30.04.2024;22:00;37
30.04.2024;21:00;35
30.04.2024;20:00;31
30.04.2024;19:00;26
30.04.2024;18:00;19
30.04.2024;17:00;28
30.04.2024;16:00;30
30.04.2024;15:00;14
30.04.2024;14:00;17
30.04.2024;13:00;17
30.04.2024;12:00;16
30.04.2024;11:00;16
30.04.2024;10:00;21
30.04.2024;09:00;23
30.04.2024;08:00;24
30.04.2024;07:00;19
30.04.2024;06:00;14
30.04.2024;05:00;4
30.04.2024;04:00;2
30.04.2024;03:00;2
30.04.2024;02:00;7
30.04.2024;01:00;18
29.04.2024;24:00;25
29.04.2024;23:00;27
29.04.2024;22:00;28
29.04.2024;21:00;27
29.04.2024;20:00;16
29.04.2024;19:00;14
29.04.2024;18:00;16
29.04.2024;17:00;21
29.04.2024;16:00;13
29.04.2024;15:00;5
29.04.2024;14:00;5
29.04.2024;13:00;3
29.04.2024;12:00;2
29.04.2024;11:00;2
29.04.2024;10:00;2
29.04.2024;09:00;2
29.04.2024;08:00;2
29.04.2024;07:00;2
29.04.2024;06:00;2
29.04.2024;05:00;2
29.04.2024;04:00;2
29.04.2024;03:00;2
29.04.2024;02:00;3
29.04.2024;01:00;7
